Regional Weather Roundup
Issued by NWS

Home | Current Version | Previous Version | Graphics & Text | Print | Product List | Glossary On
Versions: 1 2 3 4 5 6 7 8 9 10 11 12 13 14 15 16 17 18 19 20 21 22 23 24 25 26 27 28 29 30 31 32 33 34 35 36 37 38 39 40 41 42 43 44 45 46 47 48 49 50
741
ASUS43 KMKX 202021
RWRWI

WISCONSIN REGIONAL WEATHER ROUNDUP
NATIONAL WEATHER SERVICE MILWAUKEE/SULLIVAN WI
300 PM CDT THU JUL 20 2017

NOTE: "FAIR" INDICATES FEW OR NO CLOUDS BELOW 12,000 FEET WITH NO
SIGNIFICANT WEATHER AND/OR OBSTRUCTIONS TO VISIBILITY.

WIZ001-002-006>008-014>016-023>028-202100-
NORTHWEST WISCONSIN

CITY           SKY/WX    TMP DP  RH WIND       PRES   REMARKS
SUPERIOR ARPT  NOT AVBL
ASHLAND        SUNNY     83  64  52 VRB7      29.98R HX  84
HAYWARD        MOSUNNY   83  61  47 SW7       30.00F HX  83
SIREN          SUNNY     84  62  47 SW5       30.01S HX  85
CUMBERLAND     CLOUDY    81  61  50 W3        30.02S HX  81
RICE LAKE      CLOUDY    83  63  50 W8        30.03S HX  84
CHETEK         CLOUDY    84  67  57 NW3       30.01F HX  87
LADYSMITH      SUNNY     84  63  48 W9        30.02F HX  85
EAU CLAIRE     MOSUNNY   84  67  56 NW6       30.00S HX  86
MENOMONIE      MOSUNNY   83  69  62 W3        30.02R HX  87
NEW RICHMOND   CLOUDY    83  67  58 SW5       30.03S HX  85
OSCEOLA        CLOUDY    83  66  56 SW6       30.04S HX  85
$$

WIZ003>005-009-010-017-018-202100-
NORTH CENTRAL WISCONSIN

CITY           SKY/WX    TMP DP  RH WIND       PRES   REMARKS
MANITOWISH WTR SUNNY     83  58  42 W10       30.00S HX  83
ARBOR VITAE    SUNNY     85  58  39 W8        29.99R HX  84
WOODRUFF       SUNNY     85  58  39 W8        29.99R HX  84
RHINELANDER    MOSUNNY   85  63  47 W14G21    30.00F HX  86
EAGLE RIVER    MOSUNNY   83  56  39 W10G18    29.99S HX  82
LAND O LAKES   MOSUNNY   83  56  38 W8G16     30.00S HX  82
PHILLIPS       MOSUNNY   82  64  53 W7        30.00F HX  83
TOMAHAWK         N/A     82  62  51 W13G18    30.01S HX  83
MEDFORD        CLOUDY    81  62  52 W9        30.01S HX  82
MERRILL        CLOUDY    84  64  50 W6        30.00S HX  85
$$

WIZ029-030-035-036-043>047-202100-
CENTRAL WISCONSIN

CITY           SKY/WX    TMP DP  RH WIND       PRES   REMARKS
WAUSAU         SUNNY     83  64  52 W12       29.98S HX  84
MOSINEE        PTSUNNY   82  66  57 NW9       30.00F HX  85
MARSHFIELD     MOSUNNY   83  66  56 NW10      30.01R HX  85
STEVENS POINT  CLOUDY    82  65  56 NW8       29.99S HX  83
WAUPACA        PTSUNNY   85  65  51 W7        29.97R HX  87
WAUTOMA        NOT AVBL
WISC RAPIDS    PTSUNNY   84  69  60 NW10      30.00S HX  88
CAMP DOUGLAS   MOSUNNY   84  72  65 W7        29.98F HX  89
$$

WIZ011>013-019>022-031-037>040-048>050-202100-
NORTHEAST WISCONSIN

CITY           SKY/WX    TMP DP  RH WIND       PRES   REMARKS
ANTIGO         MOSUNNY   82  62  50 NW9       30.00S HX  83
SHAWANO        SUNNY     88  64  44 NW13      29.94F HX  89
OCONTO         SUNNY     85  66  52 W10G16    29.92S HX  86
STURGEON BAY     N/A     81  67  62 W10       29.94S HX  83
GREEN BAY      CLOUDY    85  70  60 NW12      29.94F HX  89
MANITOWOC      SUNNY     85  67  54 NW9       29.94S HX  87
APPLETON       MOSUNNY   84  64  51 W12       29.95S HX  86
CLINTONVILLE   SUNNY     84  64  51 NW10      29.95S HX  86
OSHKOSH        SUNNY     84  68  58 NW12      29.95S HX  87
$$

WIZ032>034-041-042-053>061-202100-
SOUTHWEST WISCONSIN

CITY           SKY/WX    TMP DP  RH WIND       PRES   REMARKS
LA CROSSE      SUNNY     88  72  58 NW8       29.98F HX  94
SPARTA         MOSUNNY   83  70  63 NW6       30.00F HX  88
VIROQUA        SUNNY     83  71  67 NW6       30.02S HX  88
BOSCOBEL       PTSUNNY   88  70  55 N6        29.97F HX  93
PRAIRIE DU CHI CLOUDY    83  68  61 N5        29.98S HX  86
PLATTEVILLE    CLOUDY    83  78  82 NW5       30.00R HX  93
$$

WIZ056-057-062-063-064-067-068-202100-
SOUTH CENTRAL WISCONSIN

CITY           SKY/WX    TMP DP  RH WIND       PRES   REMARKS
REEDSBURG      SUNNY     85  71  63 NW7       29.98S HX  90
BARABOO/DELLS  SUNNY     87  67  50 NW7       29.99S HX  89
LONE ROCK      SUNNY     87  71  58 VRB5      29.97S HX  93
MINERAL POINT  CLOUDY    84  75  74 NW6       30.00S HX  92
MADISON        MOSUNNY   85  72  65 N8        29.97S HX  91
MIDDLETON      MOSUNNY   87  71  60 N9        29.98F HX  92
WATERTOWN      MOSUNNY   84  75  74 NW7       29.97S HX  91
MONROE         CLOUDY    84  72  65 NW5       29.99R HX  89
JANESVILLE     PTSUNNY   88  73  62 NW13      29.95S HX  96
$$

WIZ051-052-058>065-066-070>072-202100-
SOUTHEAST WISCONSIN

CITY           SKY/WX    TMP DP  RH WIND       PRES   REMARKS
MILWAUKEE      MOSUNNY   79  70  74 E8        29.96S HX  82
WAUKESHA       MOSUNNY   82  70  65 NW7       29.98S HX  86
MILWAUKEE/TIMM MOSUNNY   84  66  54 NW8       29.97S HX  86
RACINE         SUNNY     77  70  79 E9        29.98R
KENOSHA        MOSUNNY   86  72  62 NW9       29.96S HX  92
FOND DU LAC    SUNNY     85  68  56 N9        29.96S HX  88
SHEBOYGAN      SUNNY     84  72  67 NW8       29.95F HX  89
WEST BEND      MOSUNNY   81  70  69 NW9       29.97S HX  84
JUNEAU         MOSUNNY   81  70  68 NW3       29.99S HX  85
$$

LSZ147-162-202100-
LAKE SUPERIOR

STATION/POSITION TIME  TEMP    WIND        PRES    WAVE
                       AIR SEA DIR/SP/G            HT/PER
                 (UTC) (F)     (DEG/KT/KT) (MB)    (FT/S)
W MID LAKE BUOY  1950   52 47  240/  6/  6 1014.4S   1/ 3
DEVILS ISLAND    2000   72     230/  8/ 12 1013.9F
SAXON HARBOR     1940   80      60/  3/  4 1014.6F
$$

LMZ867-665-643>646-202100-
LAKE MICHIGAN

STATION/POSITION TIME  TEMP    WIND        PRES    WAVE
                       AIR SEA DIR/SP/G            HT/PER
                 (UTC) (F)     (DEG/KT/KT) (MB)    (FT/S)
CHAMBERS ISLAND  1940   83     250/  4/  7 1012.5F
S GREEN BAY BUOY 2000   78 73  300/  4/  6 1013.4
N MID LAKE BUOY  1950   69 65  200/  4/  4 1013.7F   2/ 6
NORTHPORT PIER   1940   83     280/  5/ 11 1012.9F
KEWAUNEE LAKESHO 1954   84     260/  6/ 10 1013.1F
SHEBOYGAN LAKESH 2000   70     170/ 16/ 17 1013.5F
PORT WASHINGTON  1930   75     170/  4/  7 1015.2F
ATWATER BUOY     1909   71 69  120/  6/  8 1014.8R
MILWAUKEE LAKESH 2000   70     140/  3/  4   N/A
S MID LAKE BUOY  1950   71 71  110/  6/  6 1014.6F   2/ 5
KENOSHA   LAKESH 2000   73     100/  3/  4 1014.2
$$

TC  - TEMPERATURE IN CELSIUS
VSB - VISIBILITY IN STATUTE MILES
WCI - WIND CHILL INDEX
HX  - HEAT INDEX





USA.gov is the U.S. government's official web portal to all federal, state and local government web resources and services.